Location: Medlow Airstrip Trail, Medlow Bath NSW 2780, Australia
(33.6682°S, 150.3233°E)
Time: 10:35:07
(UTC+11:00)

Explorer 11/Cluster Stage 4 - Pass Details

Date: 30 September 2019
Orbit: 467 x 1259 km, 28.8° (Epoch: 20 October)

Event Time Altitude Azimuth Distance (km) Brightness Sun altitude
Rises 11:45:35 0° 280° (W) 3,075 9.7 59.0°
Reaches altitude 10° 11:48:47 10° 303° (WNW) 2,313 9.4 59.0°
Maximum altitude 11:51:58 15° 338° (NNW) 2,102 9.5 59.0°
Drops below altitude 10° 11:55:29 10° 12° (NNE) 2,632 9.9 58.9°
Sets 11:59:33 0° 33° (NNE) 3,756 10.4 58.9°
